This is the latest recevied weather packets stored in our database for station/object N0HOT. If no packets are shown the sender has not sent any weather packets the latest 10 day(s).
| Time | Temp. | Humidity | Pressure | Rain* | Wind** | Luminosity | Snow |
|---|---|---|---|---|---|---|---|
| 1777069252 | 17.78° C | 39% | 1009 hPa | 0 mm | - | 212 W/m² | - |
| 1777068948 | 17.78° C | 38% | 1009 hPa | 0 mm | - | 313 W/m² | - |
| 1777068644 | 17.78° C | 37% | 1008.7 hPa | 0 mm | - | 274 W/m² | - |
| 1777068343 | 17.78° C | 40% | 1008.7 hPa | 0 mm | - | 309 W/m² | - |
| 1777068033 | 17.78° C | 42% | 1009 hPa | 0 mm | - | 358 W/m² | - |
| 1777067732 | 17.78° C | 39% | 1009 hPa | 0 mm | - | 455 W/m² | - |
| 1777067427 | 17.78° C | 42% | 1009 hPa | 0 mm | - | 471 W/m² | - |
| 1777067120 | 17.78° C | 42% | 1009 hPa | 0 mm | - | 481 W/m² | - |
| 1777066816 | 17.78° C | 41% | 1008.7 hPa | 0 mm | - | 475 W/m² | - |
| 1777066512 | 17.78° C | 43% | 1008.7 hPa | 0 mm | - | 452 W/m² | - |
| 1777066208 | 17.78° C | 43% | 1009 hPa | 0 mm | - | 478 W/m² | - |
| 1777065907 | 17.78° C | 41% | 1008.7 hPa | 0 mm | - | 515 W/m² | - |
| 1777065603 | 17.78° C | 43% | 1009 hPa | 0 mm | - | 459 W/m² | - |
| 1777065297 | 17.78° C | 42% | 1008.7 hPa | 0 mm | - | 512 W/m² | - |
| 1777064993 | 17.78° C | 42% | 1009 hPa | 0 mm | - | 564 W/m² | - |
| 1777064690 | 17.78° C | 42% | 1008.7 hPa | 0 mm | - | 584 W/m² | - |
| 1777064386 | 17.78° C | 45% | 1008.7 hPa | 0 mm | - | 601 W/m² | - |
| 1777064083 | 17.78° C | 45% | 1008.7 hPa | 0 mm | - | 608 W/m² | - |
| 1777063777 | 17.78° C | 43% | 1008.7 hPa | 0 mm | - | 611 W/m² | - |
| 1777063472 | 17.78° C | 43% | 1008.7 hPa | 0 mm | - | 597 W/m² | - |
| 1777063169 | 17.78° C | 46% | 1008.7 hPa | 0 mm | - | 625 W/m² | - |
| 1777062865 | 17.78° C | 44% | 1008.7 hPa | 0 mm | - | 650 W/m² | - |
| 1777062561 | 17.22° C | 46% | 1009 hPa | 0 mm | - | 662 W/m² | - |
| 1777062255 | 17.22° C | 44% | 1009 hPa | 0 mm | - | 615 W/m² | - |
| 1777061953 | 17.22° C | 44% | 1008.7 hPa | 0 mm | - | 620 W/m² | - |
* Rain latest hour (hover to see other rain measurements)
** Current wind speed in m/s (hover to see current wind gust speed)